sat.trackr.live / text

‹ back to catalog

STARLINK-32792

NORAD 62504 · 2025-003T

PAYLOAD ACTIVE UNKNOWN

§ Identity

Operator
Country
US
Launch date
2025-01-06
Launch site
AFETR
Launch vehicle
Mass (kg)
RCS (m²)

Purposes: comms

External: N2YO · Heavens-Above · Gunter

§ Orbital elements

Epoch: 2026-05-24T21:52:37.767072Z

Period
94.27 min
Inclination
42.9995°
Eccentricity
0.0001109
Mean motion
15.27599398 rev/d
Perigee alt
482.2 km
Apogee alt
483.8 km
Semi-major
6,861.1 km
B*
2.2686e-4
RAAN
218.0794°
Arg perigee
282.2592°
Mean anomaly
77.8136°
Rev number
7,821

§ Raw data

STARLINK-327921 62504U 25003T   26144.91154823  .00005989  00000+0  22686-3 0  99942 62504  42.9995 218.0794 0001109 282.2592  77.8136 15.27599398 78217

JSON: /api/v1/satellites/62504 · /tle

For live sub-satellite position, see the globe view (requires WebGL).

§ Visibility from observer

Set your observer location to see the next 7 days of passes ≥ 10°. The values pass through the URL so the page stays shareable.

No JS? Fill the form by hand. The geolocation button needs JavaScript.